| time (UTC) | temp F | wind direction | speed MPH | gust MPH | rain 1hr in | rain 24hr in | rain mn in | humidity % | barometer mb |
| 20260502170507 | 63 | 55 | 1.0 | 5.0 | 0.07 | 0.58 | 0.58 | 93 | 1011.2 |
| 20260502163504 | 63 | 16 | 2.0 | 8.0 | 0.09 | 0.56 | 0.56 | 93 | 1011.4 |
| 20260502162504 | 62 | 360 | 6.0 | 8.0 | 0.09 | 0.55 | 0.55 | 93 | 1011.6 |
| 20260502162002 | 63 | 347 | 5.0 | 11.0 | 0.10 | 0.55 | 0.55 | 93 | 1011.6 |
| 20260502161502 | 63 | 359 | 5.0 | 11.0 | 0.10 | 0.54 | 0.54 | 93 | 1011.8 |
| 20260502161003 | 63 | 309 | 6.0 | 8.0 | 0.09 | 0.52 | 0.52 | 93 | 1011.8 |
| 20260502160510 | 62 | 345 | 4.0 | 6.0 | 0.09 | 0.52 | 0.52 | 94 | 1011.7 |
| 20260502151512 | 62 | 228 | 2.0 | 4.0 | 0.25 | 0.44 | 0.44 | 93 | 1011.4 |
| 20260502151002 | 62 | 32 | 2.0 | 4.0 | 0.27 | 0.44 | 0.44 | 93 | 1011.2 |
| 20260502150502 | 62 | 152 | 2.0 | 4.0 | 0.28 | 0.43 | 0.43 | 93 | 1011.6 |
| 20260502123508 | 63 | 1 | 7.0 | 10.0 | 0.00 | 0.00 | 0.00 | 88 | 1011.2 |
| 20260502123002 | 63 | 359 | 6.0 | 8.0 | 0.00 | 0.00 | 0.00 | 88 | 1011.9 |
| 20260502122502 | 63 | 352 | 5.0 | 8.0 | 0.00 | 0.00 | 0.00 | 1012.1 | |
| 20260502121530 | 62 | 337 | 5.0 | 10.0 | 0.00 | 0.00 | 0.00 | 88 | 1012.0 |
| 20260502120505 | 62 | 346 | 3.0 | 6.0 | 0.00 | 0.00 | 0.00 | 88 | 1011.7 |
| 20260502115510 | 62 | 326 | 4.0 | 6.0 | 0.00 | 0.00 | 0.00 | 87 | 1011.2 |
| 20260502114516 | 62 | 345 | 3.0 | 6.0 | 0.00 | 0.00 | 0.00 | 86 | 1011.1 |
| 20260502114008 | 62 | 345 | 4.0 | 5.0 | 0.00 | 0.00 | 0.00 | 86 | 1010.9 |
| 20260502113508 | 62 | 354 | 4.0 | 5.0 | 0.00 | 0.00 | 0.00 | 86 | 1011.0 |
| 20260502105007 | 62 | 298 | 3.0 | 4.0 | 0.00 | 0.00 | 0.00 | 85 | 1011.2 |
| 20260502104011 | 62 | 343 | 2.0 | 3.0 | 0.00 | 0.00 | 0.00 | 85 | 1010.9 |
| 20260502103022 | 62 | 359 | 1.0 | 3.0 | 0.00 | 0.00 | 0.00 | 84 | 1010.5 |
| 20260502102508 | 62 | 1 | 1.0 | 3.0 | 0.00 | 0.00 | 0.00 | 84 | 1010.5 |
| 20260502102003 | 62 | 1 | 2.0 | 4.0 | 0.00 | 0.00 | 0.00 | 84 | 1010.6 |
| 20260502101507 | 62 | 314 | 2.0 | 5.0 | 0.00 | 0.00 | 0.00 | 84 | 1010.7 |
| 20260502101008 | 62 | 330 | 3.0 | 4.0 | 0.00 | 0.00 | 0.00 | 85 | 1010.7 |
| 20260502100502 | 62 | 321 | 2.0 | 4.0 | 0.00 | 0.00 | 0.00 | 84 | 1010.5 |
| 20260502091504 | 63 | 3 | 2.0 | 2.0 | 0.00 | 0.00 | 0.00 | 82 | 1010.5 |
| 20260502091004 | 63 | 355 | 1.0 | 4.0 | 0.00 | 0.00 | 0.00 | 81 | 1010.3 |
| 20260502090504 | 63 | 315 | 2.0 | 5.0 | 0.00 | 0.00 | 0.00 | 81 | 1010.4 |
| 20260502071003 | 65 | 342 | 3.0 | 6.0 | 0.00 | 0.00 | 0.00 | 80 | 1012.5 |
| 20260502070503 | 65 | 359 | 4.0 | 6.0 | 0.00 | 0.00 | 0.00 | 80 | 1012.5 |
| 20260502070007 | 65 | 347 | 4.0 | 6.0 | 0.00 | 0.00 | 0.00 | 79 | 1012.5 |
| 20260502065504 | 65 | 356 | 4.0 | 5.0 | 0.00 | 0.00 | 0.00 | 80 | 1012.7 |
| 20260502065011 | 65 | 340 | 3.0 | 5.0 | 0.00 | 0.00 | 0.00 | 80 | 1012.7 |
| 20260502064520 | 65 | 340 | 3.0 | 6.0 | 0.00 | 0.00 | 0.00 | 80 | 1012.7 |
| 20260502064004 | 65 | 352 | 4.0 | 6.0 | 0.00 | 0.00 | 0.00 | 80 | 1012.5 |
| 20260502063511 | 65 | 335 | 4.0 | 5.0 | 0.00 | 0.00 | 0.00 | 80 | 1012.4 |
| 20260502063032 | 65 | 359 | 3.0 | 5.0 | 0.00 | 0.00 | 0.00 | 80 | 1012.3 |
| 20260502062508 | 65 | 335 | 3.0 | 3.0 | 0.00 | 0.00 | 0.00 | 81 | 1012.5 |
| 20260502062009 | 65 | 341 | 2.0 | 3.0 | 0.00 | 0.00 | 0.00 | 81 | 1012.5 |
| 20260502061519 | 65 | 345 | 2.0 | 2.0 | 0.00 | 0.00 | 0.00 | 80 | 1012.6 |
| 20260502060508 | 65 | 75 | 0.0 | 2.0 | 0.00 | 0.00 | 0.00 | 79 | 1012.5 |
| 20260502060037 | 65 | 75 | 0.0 | 2.0 | 0.00 | 0.00 | 0.00 | 79 | 1012.6 |
| 20260502055505 | 65 | 54 | 0.0 | 2.0 | 0.00 | 0.00 | 0.00 | 79 | 1012.5 |
| 20260502055004 | 65 | 70 | 1.0 | 3.0 | 0.00 | 0.00 | 0.00 | 79 | 1012.4 |
| 20260502054005 | 66 | 352 | 2.0 | 3.0 | 0.00 | 0.00 | 0.00 | 79 | 1012.7 |
| 20260502053504 | 66 | 336 | 1.0 | 2.0 | 0.00 | 0.00 | 0.00 | 79 | 1012.7 |
| 20260502053016 | 66 | 324 | 2.0 | 4.0 | 0.00 | 0.00 | 0.00 | 79 | 1012.9 |
| 20260502052509 | 66 | 360 | 2.0 | 4.0 | 0.00 | 0.00 | 0.00 | 79 | 1012.6 |
| 20260502052011 | 66 | 352 | 3.0 | 3.0 | 0.00 | 0.00 | 0.00 | 79 | 1012.8 |
| 20260502051524 | 66 | 360 | 2.0 | 6.0 | 0.00 | 0.00 | 0.00 | 79 | 1012.9 |
| 20260502051010 | 66 | 347 | 2.0 | 6.0 | 0.00 | 0.00 | 0.00 | 79 | 1013.0 |
| 20260502050506 | 66 | 360 | 2.0 | 3.0 | 0.00 | 0.00 | 0.00 | 78 | 1012.8 |
| 20260502050021 | 66 | 356 | 2.0 | 3.0 | 0.00 | 0.00 | 0.00 | 78 | 1012.9 |
| 20260502045509 | 66 | 9 | 2.0 | 3.0 | 0.00 | 0.00 | 0.00 | 78 | 1012.8 |
| 20260502045015 | 66 | 3 | 2.0 | 4.0 | 0.00 | 0.00 | 0.00 | 78 | 1013.0 |
| 20260502044004 | 66 | 360 | 3.0 | 4.0 | 0.00 | 0.00 | 0.00 | 79 | 1013.2 |
| 20260502043504 | 67 | 356 | 3.0 | 4.0 | 0.00 | 0.00 | 0.00 | 79 | 1013.1 |
| 20260502042504 | 67 | 360 | 2.0 | 3.0 | 0.00 | 0.00 | 0.00 | 78 | 1013.1 |
| 20260502042002 | 67 | 25 | 1.0 | 4.0 | 0.00 | 0.00 | 0.00 | 77 | 1013.2 |
| 20260502041528 | 67 | 1 | 3.0 | 4.0 | 0.00 | 0.00 | 0.00 | 77 | 1013.3 |
| 20260502035003 | 67 | 223 | 1.0 | 2.0 | 0.00 | 0.00 | 0.00 | 76 | 1013.3 |
| 20260502034005 | 67 | 53 | 0.0 | 2.0 | 0.00 | 0.00 | 0.00 | 76 | 1013.2 |
| 20260502032504 | 67 | 76 | 0.0 | 2.0 | 0.00 | 0.00 | 0.00 | 76 | 1013.0 |
| 20260502032008 | 67 | 18 | 1.0 | 2.0 | 0.00 | 0.00 | 0.00 | 76 | 1013.1 |
| 20260502031502 | 67 | 252 | 0.0 | 2.0 | 0.00 | 0.00 | 0.00 | 76 | 1013.2 |
| 20260502031002 | 67 | 257 | 1.0 | 3.0 | 0.00 | 0.00 | 0.00 | 75 | 1013.5 |
| 20260502030022 | 67 | 65 | 3.0 | 6.0 | 0.00 | 0.00 | 0.00 | 75 | 1012.2 |
| 20260502025007 | 68 | 360 | 3.0 | 4.0 | 0.00 | 0.00 | 0.00 | 74 | 1013.0 |
| 20260502024003 | 68 | 25 | 2.0 | 6.0 | 0.00 | 0.00 | 0.00 | 73 | 1013.2 |
| 20260502022005 | 68 | 18 | 2.0 | 5.0 | 0.00 | 0.00 | 0.00 | 74 | 1013.2 |
| 20260502021008 | 69 | 89 | 1.0 | 4.0 | 0.00 | 0.00 | 0.00 | 74 | 1013.5 |
| 20260502020004 | 69 | 8 | 1.0 | 4.0 | 0.00 | 0.00 | 0.00 | 75 | 1013.3 |
| 20260502014505 | 69 | 360 | 3.0 | 8.0 | 0.00 | 0.00 | 0.00 | 74 | 1013.5 |
| 20260502014003 | 69 | 333 | 4.0 | 8.0 | 0.00 | 0.00 | 0.00 | 74 | 1013.2 |
| 20260502010508 | 70 | 8 | 6.0 | 9.0 | 0.00 | 0.00 | 0.00 | 71 | 1012.7 |
| 20260502010016 | 70 | 39 | 5.0 | 9.0 | 0.00 | 0.00 | 0.00 | 70 | 1012.7 |
| 20260502005506 | 71 | 16 | 3.0 | 8.0 | 0.00 | 0.00 | 0.00 | 69 | 1012.7 |
| 20260502004504 | 71 | 42 | 4.0 | 5.0 | 0.00 | 0.00 | 0.00 | 68 | 1013.2 |
| 20260502003008 | 71 | 16 | 2.0 | 7.0 | 0.00 | 0.00 | 0.00 | 66 | 1013.1 |
| 20260502001516 | 71 | 360 | 4.0 | 8.0 | 0.00 | 0.00 | 0.00 | 65 | 1012.9 |
| 20260501234518 | 72 | 358 | 5.0 | 11.0 | 0.00 | 0.00 | 0.00 | 63 | 1012.2 |
| 20260501232010 | 75 | 359 | 7.0 | 12.0 | 0.00 | 0.00 | 0.00 | 60 | 1011.8 |
| 20260501231510 | 75 | 358 | 7.0 | 12.0 | 0.00 | 0.00 | 0.00 | 60 | 1011.7 |
| 20260501230101 | 77 | 359 | 10.0 | 15.0 | 0.00 | 0.00 | 0.00 | 59 | 1011.7 |
| 20260501222503 | 80 | 308 | 4.0 | 8.0 | 0.00 | 0.00 | 0.00 | 62 | 1011.3 |
| 20260501222003 | 80 | 328 | 5.0 | 9.0 | 0.00 | 0.00 | 0.00 | 61 | 1011.1 |
| 20260501221509 | 80 | 336 | 6.0 | 10.0 | 0.00 | 0.00 | 0.00 | 61 | 1011.1 |
| 20260501220013 | 81 | 356 | 5.0 | 11.0 | 0.00 | 0.00 | 0.00 | 60 | 1011.0 |
| 20260501214519 | 81 | 356 | 8.0 | 11.0 | 0.00 | 0.00 | 0.00 | 59 | 1011.1 |
| 20260501212012 | 82 | 356 | 6.0 | 8.0 | 0.00 | 0.00 | 0.00 | 57 | 1011.0 |
| 20260501211511 | 83 | 347 | 5.0 | 8.0 | 0.00 | 0.00 | 0.00 | 57 | 1011.0 |
| 20260501211004 | 82 | 342 | 4.0 | 9.0 | 0.00 | 0.00 | 0.00 | 57 | 1010.9 |
| 20260501205508 | 82 | 335 | 5.0 | 8.0 | 0.00 | 0.00 | 0.00 | 57 | 1010.8 |
| 20260501204521 | 82 | 261 | 5.0 | 8.0 | 0.00 | 0.00 | 0.00 | 56 | 1010.8 |
| 20260501204002 | 82 | 320 | 5.0 | 11.0 | 0.00 | 0.00 | 0.00 | 56 | 1010.9 |
| 20260501203023 | 83 | 285 | 8.0 | 12.0 | 0.00 | 0.00 | 0.00 | 55 | 1010.9 |
| 20260501202502 | 84 | 272 | 5.0 | 9.0 | 0.00 | 0.00 | 0.00 | 54 | 1011.0 |
| 20260501201503 | 84 | 262 | 5.0 | 11.0 | 0.00 | 0.00 | 0.00 | 52 | 1010.9 |
| 20260501201003 | 84 | 293 | 8.0 | 11.0 | 0.00 | 0.00 | 0.00 | 54 | 1010.8 |
| 20260501200503 | 84 | 3 | 2.0 | 6.0 | 0.00 | 0.00 | 0.00 | 55 | 1010.9 |
| 20260501200003 | 83 | 101 | 1.0 | 6.0 | 0.00 | 0.00 | 0.00 | 55 | 1010.9 |
| 20260501195504 | 83 | 309 | 4.0 | 8.0 | 0.00 | 0.00 | 0.00 | 56 | 1011.0 |
| 20260501195005 | 82 | 311 | 4.0 | 8.0 | 0.00 | 0.00 | 0.00 | 57 | 1011.1 |
| 20260501194503 | 82 | 291 | 4.0 | 7.0 | 0.00 | 0.00 | 0.00 | 57 | 1011.3 |
| 20260501194002 | 82 | 319 | 3.0 | 8.0 | 0.00 | 0.00 | 0.00 | 57 | 1011.5 |
| 20260501192001 | 81 | 330 | 4.0 | 12.0 | 0.00 | 0.00 | 0.00 | 57 | 1012.2 |
| 20260501191003 | 81 | 345 | 5.0 | 10.0 | 0.00 | 0.00 | 0.00 | 59 | 1012.2 |
| 20260501190502 | 80 | 279 | 5.0 | 12.0 | 0.00 | 0.00 | 0.00 | 59 | 1012.2 |
| 20260501190007 | 81 | 311 | 6.0 | 13.0 | 0.00 | 0.00 | 0.00 | 58 | 1012.3 |
| 20260501185501 | 82 | 278 | 8.0 | 13.0 | 0.00 | 0.00 | 0.00 | 57 | 1012.2 |
| 20260501185003 | 82 | 276 | 4.0 | 13.0 | 0.00 | 0.00 | 0.00 | 57 | 1012.1 |
| 20260501184504 | 82 | 70 | 1.0 | 13.0 | 0.00 | 0.00 | 0.00 | 57 | 1012.1 |
| 20260501184003 | 82 | 207 | 5.0 | 11.0 | 0.00 | 0.00 | 0.00 | 57 | 1012.2 |
| 20260501183505 | 81 | 219 | 5.0 | 8.0 | 0.00 | 0.00 | 0.00 | 58 | 1011.9 |
| 20260501183004 | 81 | 291 | 1.0 | 10.0 | 0.00 | 0.00 | 0.00 | 59 | 1012.2 |
| 20260501182004 | 80 | 259 | 9.0 | 13.0 | 0.00 | 0.00 | 0.00 | 59 | 1012.5 |
| 20260501180005 | 80 | 253 | 6.0 | 11.0 | 0.00 | 0.00 | 0.00 | 60 | 1012.6 |
| 20260501175503 | 80 | 287 | 4.0 | 12.0 | 0.00 | 0.00 | 0.00 | 60 | 1012.7 |
| 20260501175003 | 80 | 347 | 2.0 | 12.0 | 0.00 | 0.00 | 0.00 | 59 | 1012.6 |
| 20260501174503 | 80 | 320 | 7.0 | 11.0 | 0.00 | 0.00 | 0.00 | 59 | 1012.5 |
| 20260501174003 | 80 | 322 | 7.0 | 11.0 | 0.00 | 0.00 | 0.00 | 60 | 1012.6 |
| 20260501173503 | 79 | 327 | 7.0 | 11.0 | 0.00 | 0.00 | 0.00 | 60 | 1012.7 |
| 20260501173006 | 79 | 311 | 5.0 | 11.0 | 0.00 | 0.00 | 0.00 | 61 | 1012.8 |
| 20260501172504 | 79 | 284 | 4.0 | 10.0 | 0.00 | 0.00 | 0.00 | 62 | 1012.9 |
| 20260501172006 | 79 | 272 | 3.0 | 10.0 | 0.00 | 0.00 | 0.00 | 61 | 1013.0 |
| 20260501171503 | 79 | 315 | 4.0 | 13.0 | 0.00 | 0.00 | 0.00 | 61 | 1013.1 |